Regional Weather Roundup
Issued by NWS

Home | Current Version | Previous Version | Graphics & Text | Print | Product List | Glossary On
Versions: 1 2 3 4 5 6 7 8 9 10 11 12 13 14 15 16 17 18 19 20 21 22 23 24 25 26 27 28 29 30 31 32 33 34 35 36 37 38 39 40 41 42 43 44 45 46 47 48 49 50
000
ASUS43 KMKX 231111
RWRWI

WISCONSIN REGIONAL WEATHER ROUNDUP
NATIONAL WEATHER SERVICE MILWAUKEE/SULLIVAN WI
500 AM CST THU FEB 23 2017

NOTE: "FAIR" INDICATES FEW OR NO CLOUDS BELOW 12,000 FEET WITH NO
SIGNIFICANT WEATHER AND/OR OBSTRUCTIONS TO VISIBILITY.

WIZ001-002-006>008-014>016-023>028-231200-
NORTHWEST WISCONSIN

CITY           SKY/WX    TMP DP  RH WIND       PRES   REMARKS
SUPERIOR ARPT  CLEAR     29  24  84 NW7       29.90R WCI  21
ASHLAND        CLOUDY    32  29  88 N7        29.85R WCI  26
HAYWARD        CLOUDY    32  28  85 VRB7      29.84R WCI  26
SIREN          CLOUDY    32  27  81 NE10      29.86S WCI  24
CUMBERLAND     CLOUDY    32  30  93 N13G20    29.82R WCI  22
RICE LAKE      MOCLDY    33  31  92 N8        29.83S WCI  26
CHETEK         CLOUDY    34  31  90 N3        29.82R
LADYSMITH      CLOUDY    34  31  90 N8        29.81S WCI  27
EAU CLAIRE     CLOUDY    36  31  82 N9        29.80R WCI  29
MENOMONIE      CLOUDY    36  32  84 N14       29.81S WCI  27
NEW RICHMOND   CLOUDY    33  29  85 N13       29.84R WCI  24
OSCEOLA        CLOUDY    33  28  83 N9        29.90R WCI  25
$$

WIZ003>005-009-010-017-018-231200-
NORTH CENTRAL WISCONSIN

CITY           SKY/WX    TMP DP  RH WIND       PRES   REMARKS
MANITOWISH WTR CLOUDY    30  30 100 N3        29.77S
ARBOR VITAE    CLOUDY    32  30  93 N9          N/A  WCI  24
WOODRUFF       CLOUDY    32  30  93 N9          N/A  WCI  24
RHINELANDER    CLOUDY    32  29  88 N8        29.75S WCI  25
EAGLE RIVER    LGT SNOW  30  29  97 N7        29.75S WCI  23
LAND O LAKES   CLOUDY    30  28  93 N8        29.78R WCI  22
PHILLIPS       LGT SNOW  31  31  99 N6        29.77S WCI  25
TOMAHAWK       CLOUDY    32  29  88 N7        29.76S WCI  25
MEDFORD        CLOUDY    32  29  88 N13       29.74F WCI  23
MERRILL        NOT AVBL
$$

WIZ029-030-035-036-043>047-231200-
CENTRAL WISCONSIN

CITY           SKY/WX    TMP DP  RH WIND       PRES   REMARKS
WAUSAU         CLOUDY    34  30  85 N9G21     29.71S WCI  27
MOSINEE        MOCLDY    34  32  93 N14G20    29.74R WCI  24
MARSHFIELD     PTCLDY    34  30  85 N10       29.73S WCI  26
STEVENS POINT  CLOUDY    35  32  89 N12       29.74R WCI  27
WAUPACA        CLOUDY    42  35  75 NW13      29.73R
WAUTOMA        CLOUDY    41  37  86 NW9G17    29.75R
WISC RAPIDS    MOCLDY    37  32  82 N9        29.74R WCI  30
CAMP DOUGLAS   CLOUDY    39  34  80 NW8       29.77R WCI  34
$$

WIZ011>013-019>022-031-037>040-048>050-231200-
NORTHEAST WISCONSIN

CITY           SKY/WX    TMP DP  RH WIND       PRES   REMARKS
ANTIGO         CLOUDY    33  30  91 N14G20    29.74R WCI  23
SHAWANO        CLOUDY    40  34  77 N10G17    29.72R WCI  34
OCONTO         CLOUDY    38  32  80 N7        29.71R WCI  32
STURGEON BAY   CLOUDY    36  33  89 N13       29.70R WCI  27
GREEN BAY      CLOUDY    40  37  89 N15G22    29.70R WCI  32
MANITOWOC      CLOUDY    39  38  96 N8        29.71R WCI  33
APPLETON       CLOUDY    37  37 100 N10       29.70R WCI  30
CLINTONVILLE   CLOUDY    39  32  75 N9G17     29.71R WCI  33
OSHKOSH        CLOUDY    43  39  86 NW12      29.71R
$$

WIZ032>034-041-042-053>061-231200-
SOUTHWEST WISCONSIN

CITY           SKY/WX    TMP DP  RH WIND       PRES   REMARKS
LA CROSSE      CLOUDY    41  33  73 NW7       29.81R
SPARTA         CLOUDY    39  33  80 N6        29.81R WCI  34
VIROQUA        CLOUDY    39  36  89 N12G18    29.77R WCI  32
BOSCOBEL       PTCLDY    43  36  76 N5        29.77R
PRAIRIE DU CHI MOCLDY    42  35  77 NW7       29.77R
PLATTEVILLE    CLEAR     38  38 100 W6        29.74S WCI  34
$$

WIZ056-057-062-063-064-067-068-231200-
SOUTH CENTRAL WISCONSIN

CITY           SKY/WX    TMP DP  RH WIND       PRES   REMARKS
REEDSBURG      CLOUDY    42  37  82 N16G24    29.74R
BARABOO/DELLS  CLOUDY    43  36  76 NW10G18   29.73R
LONE ROCK      PTCLDY    44  37  76 NW5       29.75R
MINERAL POINT  MOCLDY    45  41  87 NW9       29.73R
MADISON        PTCLDY    45  40  82 NW7       29.71S
MIDDLETON      CLOUDY    46  41  81 NW10      29.72S
WATERTOWN      CLEAR     44  40  88 NW7       29.69F
MONROE         CLEAR     43  39  87 NW9       29.72R
JANESVILLE     CLEAR     43  41  93 W5        29.71R
$$

WIZ051-052-058>065-066-070>072-231200-
SOUTHEAST WISCONSIN

CITY           SKY/WX    TMP DP  RH WIND       PRES   REMARKS
MILWAUKEE      CLEAR     49  41  74 NW10G25   29.70R
WAUKESHA       CLEAR     43  37  81 W9        29.71R
MILWAUKEE/TIMM CLEAR     45  37  76 W10       29.69R
RACINE         PTCLDY    49  41  74 NW14G21   29.71R
KENOSHA        CLEAR     48  42  80 NW14      29.70R
FOND DU LAC    CLOUDY    45  38  76 NW16      29.71R
SHEBOYGAN      CLOUDY    45  39  79 N16G23    29.69R
WEST BEND      MOCLDY    45  41  87 NW13G18   29.69R
JUNEAU         CLOUDY    44  39  83 W5        29.72R
$$

LSZ147-162-231200-
LAKE SUPERIOR

STATION/POSITION TIME  TEMP    WIND        PRES    WAVE
                       AIR SEA DIR/SP/G            HT/PER
                 (UTC) (F)     (DEG/KT/KT) (MB)    (FT/S)
DEVILS ISLAND    1100   32     340/ 13/ 14 1011.7R
PORT WING        1040   33     360/ 12/ 13 1011.5R
SAXON HARBOR     1040   33     340/  9/ 10 1010.5R
$$

LMZ867-665-643>646-231200-
LAKE MICHIGAN

STATION/POSITION TIME  TEMP    WIND        PRES    WAVE
                       AIR SEA DIR/SP/G            HT/PER
                 (UTC) (F)     (DEG/KT/KT) (MB)    (FT/S)
CHAMBERS ISLAND  1040   35     320/ 15/ 17 1005.4R
NORTHPORT PIER   1030   35     320/ 13/ 17 1005.1R
SISTER BAY       1035   35     350/ 16/ 18   N/A
KEWAUNEE LAKESHO 1048   39     340/  3/  9 1004.7R
SHEBOYGAN LAKESH 1100   38      20/ 11/ 12 1006.0R
PORT WASHINGTON  1030   47     300/  6/ 13 1006.1R
MILWAUKEE LAKESH 1050   48     300/ 13/ 16   N/A
KENOSHA   LAKESH 1100   49     300/ 14/ 19 1005.4
$$

TC  - TEMPERATURE IN CELSIUS
VSB - VISIBILITY IN STATUTE MILES
WCI - WIND CHILL INDEX
HX  - HEAT INDEX





USA.gov is the U.S. government's official web portal to all federal, state and local government web resources and services.